Temp
22 22 22 22 22 21 21 21 21 21 20 20 20 20 20 21 20 20 20 20 21 20 18 15 14 13 11 11 11 11 11 13 13 12 11 12 13 14 14 14 14 14 14 14 15 15 15 16 17 16 16 13 9 5 4 5 6 8 11 12 10 10 12 12 13 15 15 13 12 11 10 11 13 14 14 14 13 13 13 12 12 11 10 11 11 10 12
22 23 23 22 22 22 22 22 22 21 21 21 21 21 20 20 20 20 19 20 21 20 18 16 14 12 12 12 12 11 11 12 13 12 12 12 12 14 14 14 13 13 13 13 14 15 15 16 15 14 16 12 5 3 4 4 7 8 8 9 9 11 13 13 13 14 15 14 14 13 12 12 14 15 14 13 13 12 12 11 11 10 10 11 11 10 13
22 22 23 23 23 22 22 22 22 21 21 22 21 20 20 20 21 21 19 19 19 18 17 16 15 14 14 14 14 13 12 11 11 11 12 11 11 13 14 13 12 13 13 13 14 14 15 16 14 13 15 11 5 4 4 4 6 5 4 4 6 10 13 13 12 13 13 13 14 14 14 14 14 14 14 13 12 12 11 11 10 10 11 12 11 11 13
21 22 22 23 23 23 23 22 22 22 22 22 21 20 20 21 21 20 20 18 17 16 16 16 16 15 15 15 15 15 14 13 11 11 12 11 11 13 13 13 13 14 14 14 15 15 14 14 14 13 14 12 8 4 3 4 4 4 3 3 5 9 12 11 12 13 13 13 14 14 14 13 12 13 13 12 12 11 11 11 10 10 11 11 11 12 12
20 21 22 22 22 22 23 22 22 22 22 22 22 19 19 20 19 18 19 19 18 17 16 15 16 16 16 15 14 15 15 14 13 12 13 12 11 13 14 14 13 14 13 13 14 15 14 14 14 13 12 12 10 5 4 5 4 4 4 4 6 10 11 11 12 13 13 13 13 14 13 12 12 12 12 12 12 11 10 10 10 11 11 10 12 13 12
20 20 21 22 22 22 22 22 22 22 22 22 21 19 18 19 17 15 16 17 17 17 16 15 15 16 15 14 14 15 15 15 14 14 13 12 12 13 15 14 13 13 12 13 13 13 14 14 13 12 11 11 11 8 7 6 5 5 6 6 7 9 10 11 11 11 12 12 12 12 12 11 12 12 12 12 12 11 10 10 11 11 10 10 13 13 12
20 20 21 21 22 22 22 22 22 22 21 22 21 19 17 17 16 15 15 15 15 14 14 15 16 16 16 15 14 15 15 14 13 13 13 14 14 14 15 13 12 12 12 13 13 12 13 13 12 11 10 10 10 11 10 8 6 6 8 7 7 9 10 11 10 10 11 11 12 12 11 11 12 12 12 13 13 12 11 11 11 10 10 11 11 11 11
20 21 21 22 22 22 22 22 21 21 22 22 20 17 16 17 17 16 16 15 14 13 14 16 17 17 16 16 14 14 15 14 13 12 13 15 14 13 13 12 11 12 13 12 13 12 11 12 11 10 10 9 10 11 11 10 8 8 9 8 7 9 11 11 11 10 11 12 13 13 12 12 12 12 13 13 13 13 12 12 12 11 11 11 11 10 11
20 21 22 22 22 22 22 22 22 22 23 22 19 15 15 16 17 17 17 16 15 15 16 17 18 17 15 15 14 14 14 13 12 12 12 12 13 12 11 11 11 12 13 13 12 11 9 9 9 9 9 9 10 10 10 9 8 9 9 8 8 9 10 10 10 10 11 13 14 13 12 12 12 12 13 13 13 13 13 13 13 12 12 12 11 10 11
19 20 21 22 22 23 23 23 23 23 24 22 18 15 15 17 17 18 18 17 16 16 17 17 17 16 13 13 13 13 13 11 12 13 12 10 10 10 10 11 11 12 14 13 11 9 7 7 7 6 6 6 7 7 8 7 8 8 8 8 8 8 8 9 10 10 11 13 12 12 11 12 13 15 15 14 14 14 14 14 13 13 13 12 11 12 13
18 19 20 21 22 23 23 23 23 24 24 23 19 15 15 18 19 18 18 18 16 15 16 17 16 15 13 12 12 13 13 12 12 13 13 11 10 9 9 10 11 13 13 9 5 4 3 2 1 1 2 3 4 5 6 7 7 7 8 8 8 8 8 8 9 10 11 11 11 11 11 12 14 16 15 14 15 14 14 14 13 13 13 13 13 13 14
18 18 19 20 21 21 22 22 23 23 23 23 21 17 16 17 18 18 19 19 16 15 16 15 12 12 12 11 12 12 12 12 11 11 12 12 10 9 9 10 12 12 8 4 2 2 2 2 1 2 2 3 4 5 6 6 7 7 7 8 8 8 8 8 10 10 10 10 11 10 11 13 15 15 14 14 15 14 14 13 13 13 13 13 13 13 13
17 18 18 19 19 20 20 21 21 21 21 22 22 19 17 18 18 18 18 18 16 15 16 13 8 8 10 11 11 12 11 10 9 9 11 11 10 10 10 10 11 8 4 2 2 3 7 10 10 8 6 5 5 7 6 6 6 7 7 7 7 8 8 8 9 10 10 10 10 10 11 13 14 14 14 14 14 14 12 12 12 13 12 11 10 10 11
17 17 18 18 19 19 20 20 20 20 21 22 21 19 18 18 18 18 18 18 15 13 13 14 12 10 11 11 12 12 11 10 10 10 10 10 10 11 10 8 6 4 2 3 4 6 11 14 14 13 12 11 10 11 10 8 7 7 7 7 6 7 8 8 9 10 10 10 10 10 11 12 13 14 14 13 13 13 12 11 11 10 9 7 7 7 7
17 17 18 18 19 19 19 19 19 20 20 21 20 19 18 18 18 17 17 17 16 13 13 14 14 13 13 12 12 13 14 13 12 12 10 8 9 10 7 5 3 2 2 5 8 11 13 14 13 14 15 14 14 14 13 12 10 7 6 7 7 7 7 8 8 10 10 9 9 9 9 10 12 14 13 12 13 13 11 10 10 8 6 6 6 6 5
17 18 18 18 18 18 18 18 18 18 19 20 20 19 18 17 18 18 17 16 17 16 13 10 11 13 13 12 12 13 14 14 14 13 12 11 11 10 5 2 1 1 3 6 10 13 14 14 13 14 14 14 14 13 13 14 12 8 5 6 6 6 7 7 7 7 8 8 8 8 9 11 12 13 12 12 12 11 11 10 8 6 6 6 5 5 5
17 18 18 18 18 18 18 18 18 18 18 19 20 19 17 17 17 18 17 16 16 13 9 7 10 13 13 13 12 12 12 13 13 14 14 13 12 11 8 3 2 3 5 10 13 13 13 14 13 13 14 14 13 12 12 13 13 11 8 7 6 6 6 6 7 7 7 8 8 8 10 11 10 10 10 9 10 11 9 8 7 5 5 6 5 4 4
17 17 18 18 18 18 18 18 18 19 18 18 19 19 16 16 17 17 16 16 15 11 7 6 9 11 11 11 11 11 12 12 12 13 14 14 12 11 10 8 7 7 7 11 13 13 12 13 13 12 13 13 12 12 12 12 12 13 12 11 10 9 7 7 7 7 8 8 8 9 11 10 8 8 8 7 9 10 7 5 5 5 5 5 4 4 4
16 17 17 18 18 18 19 18 18 18 18 18 19 18 15 16 17 17 16 16 14 11 7 6 8 9 8 8 10 11 10 11 12 12 14 14 11 9 9 9 9 10 11 12 13 12 12 13 13 12 11 12 12 12 12 12 12 13 13 12 12 11 10 9 9 9 10 10 9 10 11 8 7 7 7 7 7 6 4 4 5 5 5 5 4 4 4
16 17 17 17 18 18 18 18 18 18 18 18 19 18 15 15 16 17 16 14 10 8 7 5 6 7 6 7 10 10 10 11 12 12 13 13 10 10 11 11 10 11 12 12 12 12 12 12 12 12 11 11 12 12 11 12 13 13 12 12 12 12 11 11 11 11 11 10 10 9 8 6 6 7 6 6 5 4 5 5 5 5 5 4 4 4 4
16 16 17 17 17 17 18 18 18 18 17 17 18 18 15 15 16 16 16 14 11 9 8 6 6 6 6 5 6 7 8 9 9 10 11 12 11 11 13 13 11 11 11 10 11 12 12 11 12 11 11 11 12 12 11 11 11 12 12 12 12 12 11 10 11 11 10 9 9 8 5 5 6 6 4 5 6 6 6 5 4 5 5 4 4 4 4
16 16 16 17 17 17 17 17 17 17 16 16 18 18 15 14 14 15 16 15 10 8 7 6 6 6 6 6 6 5 6 6 5 6 8 10 11 11 11 12 11 10 10 10 11 12 11 11 11 10 10 11 11 11 11 10 10 12 12 11 11 11 10 9 9 10 10 9 8 7 5 5 6 5 5 5 5 6 5 5 4 4 4 4 4 3 3
15 16 16 16 16 16 16 16 16 17 16 16 17 17 15 14 14 15 16 13 8 6 7 6 7 7 7 6 6 6 6 6 6 5 5 7 11 11 11 11 10 9 9 9 10 10 10 10 10 10 10 10 10 10 10 10 10 11 11 12 12 10 8 8 9 8 8 8 8 6 5 5 5 5 5 5 5 5 5 4 4 4 4 4 4 3 3
15 15 15 16 16 16 16 16 15 16 16 16 16 16 15 15 14 14 14 12 9 9 9 8 8 8 7 6 6 7 7 6 6 6 5 6 9 11 11 9 8 9 9 8 7 9 9 8 9 9 8 9 10 9 9 10 11 11 10 10 10 9 7 7 7 6 5 7 7 6 4 4 5 5 5 5 4 5 4 4 4 4 4 4 3 3 3
14 15 15 15 15 15 15 15 14 15 15 16 16 16 16 15 14 14 14 14 13 13 11 10 9 7 6 6 6 7 7 7 6 7 6 5 6 8 9 8 7 8 8 7 6 8 8 8 8 8 8 9 10 10 10 10 10 9 9 7 6 6 7 6 5 4 5 5 5 5 5 4 4 4 4 4 4 4 4 4 4 4 4 3 3 3 3
14 15 15 15 15 15 15 15 14 14 14 15 16 16 15 13 13 14 13 13 14 14 13 10 9 7 6 6 6 6 7 7 7 7 6 6 5 5 5 5 6 6 6 6 6 7 7 7 8 8 8 9 9 9 10 10 9 9 8 6 5 5 5 4 4 3 4 4 4 4 4 3 4 4 4 4 4 4 4 4 4 3 3 3 3 3 2
14 15 15 15 15 15 15 15 14 14 14 14 14 15 14 12 12 12 11 10 13 16 14 10 8 7 7 6 7 7 7 7 7 7 6 6 6 5 4 4 6 6 6 6 6 6 6 7 7 7 8 8 8 8 8 8 8 8 6 5 5 4 3 3 3 2 2 3 4 3 2 2 3 4 4 4 4 4 3 3 3 3 2 2 2 2 2
14 14 14 14 14 14 15 15 15 15 14 13 13 14 13 12 11 11 10 9 11 14 13 10 8 8 8 7 7 8 7 7 7 7 7 6 6 5 3 4 5 6 6 6 6 6 6 6 7 8 9 8 7 8 8 8 8 7 5 4 4 4 3 3 3 2 2 3 4 3 3 2 3 3 3 4 4 3 3 2 2 2 2 2 2 1 1
13 13 13 13 13 14 14 15 15 15 15 14 13 12 12 11 11 11 11 10 10 11 11 10 9 9 9 8 8 7 7 7 6 7 7 6 5 3 3 3 5 6 6 6 6 6 7 7 8 9 8 7 7 8 8 8 8 5 3 4 5 4 4 4 3 3 3 4 4 3 3 3 3 3 3 3 3 3 2 2 2 2 2 2 1 1 1
13 13 13 13 13 13 14 14 14 15 15 14 13 13 13 12 11 11 11 11 11 11 11 12 11 9 8 7 7 7 7 7 6 6 6 4 2 2 2 3 3 5 6 6 6 6 6 7 8 8 7 7 7 7 7 8 7 4 3 4 5 4 4 4 4 3 3 3 4 4 3 3 3 3 3 3 3 2 2 2 2 2 1 1 1 1 1
13 13 12 12 12 13 13 13 13 14 15 15 14 14 15 14 11 10 10 11 11 10 11 12 11 9 8 7 7 7 7 7 6 6 5 4 3 2 2 3 4 4 5 5 6 6 6 6 7 7 7 6 7 7 7 7 6 4 3 4 4 4 4 4 4 4 3 3 3 3 3 3 3 2 2 2 2 2 2 1 1 1 1 1 1 1 1
13 13 13 12 12 12 13 13 12 12 14 13 11 11 10 10 9 9 10 11 10 10 12 13 11 10 10 9 7 7 8 7 6 6 6 5 4 3 2 3 3 4 4 5 5 6 6 6 6 7 7 7 6 6 6 5 3 3 3 4 4 4 4 3 3 3 3 3 3 2 2 2 2 2 2 2 2 2 1 1 1 1 1 1 1 1 1
13 13 13 13 12 12 12 13 12 12 12 11 10 9 8 8 8 9 10 10 10 9 11 12 12 11 11 10 8 8 8 8 7 7 7 7 6 5 4 3 3 4 4 5 5 6 6 6 6 6 7 6 6 6 5 3 2 3 4 3 3 3 3 3 3 3 3 3 2 1 1 1 2 2 1 1 1 1 1 1 1 1 1 0 0 0 0
13 13 13 13 12 12 12 12 12 11 11 10 9 9 9 8 9 9 9 10 10 10 10 11 11 10 10 11 10 8 8 8 8 8 8 7 6 6 7 5 5 5 5 5 6 7 7 6 6 6 6 6 6 5 4 2 2 3 3 3 3 3 3 3 3 3 2 2 2 2 1 1 1 1 1 1 1 1 1 1 1 0 0 0 0 -0 -0
14 14 13 13 13 12 12 12 12 11 11 9 9 9 9 9 9 9 9 10 10 11 10 10 10 9 8 10 10 9 7 8 8 8 8 7 6 6 7 6 6 7 6 5 6 7 7 7 7 6 6 6 5 4 2 2 3 3 2 3 3 3 2 2 2 2 2 2 1 1 1 1 1 1 1 1 1 0 0 0 0 -0 -0 -0 -0 -0 -1
14 14 13 13 13 12 12 12 11 10 9 8 9 9 10 10 10 10 10 10 10 10 10 9 8 7 6 7 9 8 7 8 8 8 8 8 7 6 6 6 7 7 6 5 6 7 7 7 6 6 7 6 4 2 2 2 3 2 2 3 3 2 2 2 1 1 1 1 1 1 1 1 1 1 0 0 0 0 0 -0 -0 -0 -1 -1 -0 -1 -1
14 14 13 13 12 12 11 10 9 8 8 8 9 10 10 10 10 10 10 10 9 9 9 8 7 5 5 6 6 7 7 7 7 7 7 7 7 7 6 6 6 6 6 6 7 6 6 6 6 6 6 4 3 3 3 3 3 3 2 2 2 2 2 1 1 1 1 1 1 1 1 1 0 0 0 0 -0 -0 -0 -0 -0 -1 -1 -1 -1 -1 -1
13 13 13 12 12 11 11 9 8 8 9 9 10 10 10 10 10 9 8 8 8 8 7 7 5 4 4 5 6 7 7 6 6 7 7 7 7 6 6 6 6 6 6 7 7 6 6 6 5 4 4 3 3 3 3 3 3 3 2 2 2 2 1 1 1 1 0 0 0 0 0 -0 -0 -0 -0 -0 -0 -0 -0 -1 -1 -1 -1 -1 -1 -1 -2
14 13 12 12 10 10 9 9 8 9 9 9 10 10 9 9 10 9 8 7 7 7 6 5 5 4 4 5 5 6 6 5 5 6 6 6 6 6 6 6 6 5 6 6 6 6 6 5 5 4 3 3 3 3 3 3 3 2 2 2 2 2 1 1 1 1 0 0 0 0 -0 -0 -1 -1 -1 -1 -1 -1 -1 -1 -1 -1 -1 -1 -1 -1 -2
13 12 10 9 9 8 8 9 9 9 9 9 9 10 9 9 8 7 7 8 7 5 5 5 4 3 3 3 3 4 5 5 5 4 4 5 6 6 5 5 5 4 4 5 5 5 5 5 5 5 4 3 3 3 3 3 2 2 2 2 2 2 1 1 1 1 1 0 0 0 0 -0 -1 -1 -1 -1 -1 -1 -1 -1 -1 -1 -1 -1 -1 -2 -2
11 10 8 8 9 9 9 9 9 9 9 10 10 9 9 8 6 4 6 8 7 4 4 4 4 4 4 3 2 4 4 4 4 4 3 4 5 5 5 4 3 3 4 5 5 4 4 5 5 5 3 3 3 3 2 2 2 2 2 2 2 1 1 1 1 1 1 0 -0 -0 -0 -1 -1 -1 -1 -1 -1 -1 -1 -1 -1 -1 -1 -2 -2 -2 -2
10 9 9 9 9 9 9 10 9 9 9 11 11 9 7 7 7 6 6 7 5 4 4 4 4 4 4 3 3 3 4 4 4 3 3 3 4 4 3 2 2 3 4 5 4 4 4 5 5 4 3 3 3 2 2 2 2 1 1 1 1 1 1 1 0 0 0 -0 -1 -1 -1 -1 -1 -1 -1 -1 -2 -2 -2 -2 -2 -2 -2 -2 -2 -2 -2
10 10 9 10 10 9 10 10 10 9 9 10 11 10 9 7 7 6 6 4 3 3 4 4 3 3 4 4 3 3 3 4 3 3 3 4 4 2 2 2 3 3 4 4 4 4 5 5 4 3 3 3 3 2 2 2 1 1 1 1 1 1 1 0 0 -0 -0 -0 -1 -1 -1 -1 -1 -1 -1 -1 -2 -2 -2 -2 -2 -2 -2 -2 -2 -2 -2
10 9 9 10 10 10 11 11 10 10 10 9 8 9 10 8 6 7 6 4 3 3 4 3 3 2 2 3 3 3 3 3 3 3 3 4 3 2 2 3 4 4 4 4 3 4 4 5 4 4 3 3 2 2 2 1 1 1 1 1 1 1 0 0 -0 -0 -1 -1 -1 -1 -1 -1 -2 -2 -2 -2 -2 -2 -2 -2 -2 -2 -2 -2 -2 -3 -3
10 10 11 12 11 10 11 11 10 9 9 8 6 7 7 6 6 6 5 2 2 3 3 3 2 1 1 3 3 2 1 2 3 3 3 3 2 2 3 3 3 2 3 3 3 3 4 4 4 3 3 2 2 2 1 1 1 1 0 0 0 0 -0 -0 -1 -1 -1 -1 -1 -1 -2 -2 -2 -2 -2 -2 -2 -2 -2 -2 -2 -2 -2 -3 -3 -3 -3
8 8 10 12 11 8 9 10 9 8 7 5 4 5 5 5 4 4 1 -0 1 2 2 1 1 0 1 2 3 2 1 1 2 2 2 2 2 3 3 3 2 2 2 3 3 3 4 4 3 2 2 2 1 1 1 1 1 1 0 -0 -0 -0 -1 -1 -1 -1 -1 -1 -2 -2 -2 -2 -2 -2 -2 -2 -2 -2 -3 -3 -2 -3 -3 -3 -3 -3 -3
8 6 8 11 11 8 7 8 7 5 4 3 2 1 1 0 1 1 -0 -1 -0 0 0 0 1 1 1 1 2 2 1 -0 1 2 2 1 2 2 2 2 2 2 2 2 3 3 3 3 2 2 2 1 1 1 0 0 0 0 -0 -1 -1 -1 -1 -1 -1 -2 -2 -2 -2 -2 -2 -2 -3 -3 -3 -3 -3 -3 -3 -3 -3 -3 -3 -3 -3 -3 -4
8 7 9 10 9 7 6 5 3 2 2 1 -1 -2 -3 -2 0 1 0 -1 -1 -1 -0 0 1 1 1 1 1 1 1 0 1 2 1 0 1 1 2 2 2 1 1 2 2 2 2 2 2 1 1 1 1 0 0 -0 -0 -0 -1 -1 -1 -2 -2 -2 -2 -2 -2 -2 -3 -3 -3 -3 -3 -3 -3 -3 -3 -3 -3 -3 -3 -3 -3 -3 -4 -4 -5
6 6 7 6 5 3 3 3 3 3 3 0 -2 -3 -2 -0 2 2 -0 -2 -1 -0 -1 -1 -0 1 1 0 0 0 0 0 0 0 0 1 1 1 1 1 1 2 2 2 2 2 2 2 1 1 1 0 0 -0 -0 -0 -1 -1 -1 -2 -2 -2 -2 -2 -2 -2 -2 -3 -3 -3 -3 -3 -3 -3 -3 -3 -3 -3 -3 -3 -4 -4 -4 -4 -5 -6 -7
6 6 5 4 4 4 3 2 4 5 4 2 1 1 0 1 2 1 -0 -0 0 -0 -1 -1 -0 0 0 0 1 1 0 -1 -1 -1 0 1 1 -0 -0 1 2 2 2 2 2 1 1 1 1 1 0 0 -0 -0 -1 -1 -1 -2 -2 -2 -2 -2 -2 -2 -3 -3 -3 -3 -3 -3 -3 -4 -4 -4 -4 -4 -4 -4 -4 -4 -4 -4 -5 -6 -7 -7 -8
5 5 3 3 4 5 4 4 5 6 5 4 4 3 2 2 2 1 -0 -0 0 1 1 1 -0 -0 0 1 2 1 0 -1 -2 -1 0 1 -0 -1 0 1 2 2 2 2 1 1 1 1 0 0 -0 -0 -1 -1 -1 -1 -2 -2 -2 -2 -2 -3 -3 -3 -3 -3 -3 -3 -3 -4 -4 -4 -4 -4 -4 -4 -4 -4 -5 -5 -5 -6 -7 -8 -8 -8 -8
5 5 3 1 2 3 3 4 5 5 4 4 3 2 2 2 1 0 -0 0 1 1 1 0 -0 0 1 1 1 0 0 -1 -1 -1 0 0 -0 -0 1 1 1 1 1 1 1 1 1 0 -0 -0 -1 -1 -1 -1 -1 -2 -2 -2 -2 -2 -3 -3 -3 -3 -3 -3 -3 -4 -4 -4 -4 -4 -4 -4 -5 -5 -5 -5 -6 -6 -7 -8 -8 -9 -9 -9 -9
Height
815 814 812 812 812 812 813 814 815 815 816 816 816 816 819 825 831 831 827 826 824 827 846 861 864 871 879 880 880 881 880 878 877 878 880 878 876 875 874 875 876 875 875 874 871 870 869 863 861 862 862 871 885 893 895 892 888 883 873 869 875 873 866 863 854 839 831 834 837 837 840 837 830 829 828 829 832 830 832 837 836 838 836 829 834 829 794
817 815 814 813 813 813 814 814 815 816 817 817 817 819 824 828 830 830 829 826 823 832 850 862 869 875 877 877 879 881 881 880 879 880 881 881 880 877 876 877 878 877 878 877 873 871 870 865 867 868 863 875 894 897 895 893 886 884 882 879 879 871 859 860 859 848 839 836 834 834 835 835 828 825 827 830 831 834 837 836 840 844 833 824 833 825 791
819 817 816 814 814 815 815 816 816 817 818 818 818 820 824 828 831 833 833 828 828 841 852 858 866 872 872 874 876 877 880 884 884 883 883 884 883 880 878 879 881 879 876 876 874 873 873 869 871 873 868 877 894 896 894 894 890 890 893 893 888 874 861 862 864 860 856 851 846 841 836 834 830 824 827 831 831 835 837 836 844 845 828 819 825 815 788
821 819 818 816 816 816 816 817 818 818 819 819 819 821 824 829 836 839 839 837 840 850 856 856 862 868 869 872 876 876 878 882 885 885 883 884 884 881 880 880 880 877 875 876 874 872 874 874 872 874 873 875 886 894 894 893 892 893 895 896 890 877 867 865 862 858 856 852 847 841 839 842 837 829 828 830 832 834 834 838 842 834 824 820 812 800 790
823 821 820 818 817 817 817 818 819 819 821 820 820 823 827 832 844 849 847 846 850 856 860 861 863 865 866 873 879 879 877 879 881 882 882 883 884 881 879 880 881 880 880 880 878 874 875 875 874 878 879 876 880 891 893 892 892 892 892 892 887 878 870 864 860 856 851 848 844 839 841 844 839 832 828 825 828 834 836 837 830 821 825 821 797 787 790
826 824 822 820 819 819 818 819 820 820 821 821 821 827 832 837 849 855 852 854 860 862 864 867 867 865 868 876 881 878 878 881 881 881 882 882 884 881 879 881 883 885 886 884 881 879 876 874 876 879 882 880 878 882 886 889 891 890 888 888 885 881 873 865 863 859 852 850 848 842 843 843 836 831 827 821 823 829 831 828 820 819 825 813 790 786 790
829 826 825 823 821 821 821 821 821 821 822 822 821 828 837 842 849 855 854 859 868 871 870 869 867 866 869 876 882 880 880 883 885 886 883 880 882 882 881 885 887 886 886 884 884 884 881 879 881 882 884 884 879 875 876 882 887 886 883 884 885 881 871 864 865 861 853 849 845 840 843 842 831 823 820 817 816 817 819 818 816 817 817 804 794 795 790
831 829 827 826 824 823 823 823 823 822 823 823 824 831 839 841 846 852 855 862 869 872 871 867 865 867 870 875 882 883 881 884 887 889 886 883 884 886 886 889 890 886 885 884 884 885 886 885 885 885 886 885 880 875 874 877 881 880 878 881 884 878 867 860 862 859 848 839 835 834 837 836 828 819 814 813 811 808 808 807 806 809 807 798 796 798 788
834 832 830 829 827 826 825 825 825 824 824 824 828 835 839 840 843 846 850 862 871 869 868 867 866 872 876 878 883 884 883 887 889 889 891 891 890 892 892 892 890 885 882 882 883 886 890 890 887 887 888 886 881 878 878 880 882 879 878 881 881 879 872 864 864 863 848 833 831 833 833 831 826 816 810 808 806 803 801 798 796 798 796 792 794 794 783
837 836 834 832 831 829 829 828 827 827 827 826 831 838 840 841 844 844 846 860 872 870 868 868 869 877 884 884 885 885 886 890 889 887 892 895 895 896 895 893 890 884 879 879 883 888 892 892 891 891 891 890 888 885 883 884 885 882 881 881 880 880 879 873 871 866 847 833 835 836 834 830 817 805 802 803 801 798 796 793 792 790 789 791 792 785 772
841 839 837 836 834 833 832 831 830 831 830 829 832 839 842 841 844 845 847 859 872 873 871 872 874 880 885 887 887 887 887 890 890 888 890 894 896 896 894 892 888 881 880 884 889 894 896 897 898 897 896 894 892 890 887 885 885 884 882 881 879 880 881 877 874 867 851 839 840 839 834 826 809 797 798 798 796 795 793 791 790 788 788 788 784 775 768
845 843 842 840 839 838 836 836 835 835 835 835 835 839 843 843 844 846 848 859 873 876 873 879 886 886 887 889 889 889 889 892 894 893 891 892 893 894 893 890 885 882 886 892 894 895 894 893 895 895 895 895 891 889 888 885 883 882 881 880 880 880 881 877 869 865 858 847 846 846 833 816 803 797 796 793 792 793 794 792 791 790 788 786 782 777 773
849 847 846 844 843 842 841 840 840 840 840 841 840 841 844 845 844 848 851 860 875 878 875 884 895 894 892 892 890 890 893 895 897 896 893 891 891 890 890 890 888 888 892 894 895 895 886 876 876 880 885 890 889 885 884 884 882 880 880 882 882 879 880 878 870 866 860 851 850 848 829 808 802 800 795 794 795 796 799 798 793 792 795 796 794 790 786
853 852 850 849 848 847 846 845 845 844 844 845 843 844 846 846 846 849 850 858 875 884 880 882 889 891 891 891 890 891 892 894 895 894 892 892 890 888 890 892 892 893 895 893 892 890 878 867 866 867 868 872 873 869 870 875 877 878 879 881 883 882 879 878 873 864 858 855 851 843 829 816 808 801 798 800 801 799 802 803 798 800 809 814 812 807 804
857 856 854 853 852 851 850 850 849 849 848 848 847 847 848 848 848 849 851 857 871 882 884 883 884 886 888 890 890 888 887 888 889 889 892 894 892 890 892 894 894 895 895 892 886 880 873 870 872 870 864 863 865 861 860 862 867 877 882 879 881 883 880 879 876 863 857 861 859 851 843 828 810 801 802 803 800 798 801 803 804 810 817 819 819 816 813
861 860 858 857 856 855 854 854 853 853 852 852 851 850 850 851 851 851 853 856 863 875 886 890 888 886 887 889 890 888 886 885 885 885 888 890 889 890 894 895 895 895 895 891 884 877 873 873 876 876 870 867 867 866 863 859 861 873 885 885 883 883 880 880 883 876 869 870 869 861 846 826 812 808 807 804 802 801 802 804 808 816 821 820 822 822 818
864 863 862 860 860 858 858 857 856 856 856 855 854 853 853 855 855 854 856 858 866 881 893 893 890 887 887 888 890 889 889 888 886 885 884 885 887 889 892 894 895 895 894 887 880 877 878 876 876 877 872 867 869 871 868 864 862 864 874 880 882 884 886 884 882 879 873 869 866 855 836 824 824 824 821 817 809 804 808 813 818 825 828 827 827 828 823
867 867 865 864 863 862 861 861 860 859 859 858 858 857 857 858 858 857 858 860 870 887 897 895 891 891 891 892 892 891 890 889 889 887 884 884 888 891 892 893 891 891 891 886 881 882 883 879 878 881 877 871 872 872 868 868 865 858 857 860 862 868 876 878 875 871 864 861 860 846 830 830 838 836 831 825 812 809 825 836 835 835 835 832 831 829 825
871 870 869 868 867 865 864 864 863 863 862 862 861 860 861 862 861 860 861 863 871 887 897 897 895 895 896 895 893 892 892 891 891 889 886 886 891 894 895 894 892 890 888 885 883 885 885 880 878 883 884 878 872 871 870 868 864 858 856 856 855 855 858 862 864 860 852 848 847 836 827 835 843 839 832 828 828 837 849 848 841 839 836 832 831 827 821
874 873 872 871 870 869 868 867 866 866 865 865 865 864 865 866 864 862 864 867 877 892 899 899 898 898 897 896 895 894 894 893 892 892 891 891 894 893 890 890 893 892 890 888 887 886 887 884 881 883 886 881 874 873 872 866 859 857 857 856 855 853 852 851 849 845 843 844 842 840 845 850 849 843 840 842 849 856 853 844 840 839 834 830 828 823 819
877 876 875 874 873 872 871 870 869 869 868 868 868 867 869 870 869 867 867 868 876 889 899 900 900 899 899 898 898 898 898 898 898 897 896 895 894 893 891 893 895 895 895 896 893 889 888 887 885 885 885 880 876 875 873 869 863 856 855 856 854 851 853 855 849 843 847 850 845 849 862 864 854 852 856 857 855 852 847 844 841 836 831 828 825 820 818
880 879 878 877 876 875 874 873 873 871 871 872 871 869 871 873 873 872 872 871 877 889 898 901 900 900 900 900 900 900 900 901 902 902 901 898 895 895 896 897 898 898 899 899 896 892 891 890 889 889 887 883 880 876 874 876 870 857 854 858 856 853 858 863 857 851 852 852 849 854 862 859 854 856 858 856 853 849 846 845 840 833 830 828 823 818 815
883 882 881 880 879 878 877 876 876 875 874 875 873 872 874 876 876 876 874 876 884 894 899 900 900 900 901 901 901 902 902 902 902 902 903 901 897 897 898 898 899 900 900 900 899 897 897 895 893 892 890 885 883 879 876 875 869 860 856 855 853 857 864 863 859 858 857 852 850 854 856 854 853 854 853 852 851 848 844 842 838 833 830 825 821 817 811
886 885 884 883 882 881 880 879 879 878 877 877 876 876 877 877 878 878 877 879 886 893 899 901 901 901 902 902 903 903 902 903 902 902 903 903 899 897 898 900 901 901 900 901 901 900 901 900 896 896 894 886 882 882 880 874 866 863 862 860 858 863 866 864 864 869 867 858 853 856 859 858 857 855 853 852 850 847 844 841 837 832 828 824 820 815 808
888 887 887 886 885 884 883 882 881 881 880 880 879 879 879 879 879 879 879 880 883 888 895 901 903 903 904 904 903 903 903 903 903 902 902 903 902 901 901 901 903 902 901 903 902 901 903 901 897 897 895 886 879 879 877 872 869 868 870 876 877 873 870 872 876 877 874 868 863 862 861 860 858 857 854 851 848 844 842 839 834 830 825 821 817 812 807
891 890 889 888 887 887 886 885 884 884 883 883 882 881 880 881 882 881 880 882 883 884 892 901 904 904 905 905 904 905 904 903 903 902 902 902 903 903 903 903 904 903 903 903 902 902 902 900 897 898 894 886 882 879 874 873 874 873 876 883 886 881 879 883 885 882 877 872 867 863 860 858 856 856 853 850 847 843 838 835 831 827 822 817 814 810 805
892 892 891 890 890 889 888 887 887 886 886 885 885 884 883 883 884 884 883 884 884 883 891 901 905 905 906 906 906 906 905 904 903 902 902 902 902 903 903 904 904 903 903 903 902 902 903 901 899 896 890 886 884 881 877 877 876 877 883 888 887 887 889 890 889 888 885 877 871 868 866 862 858 855 853 850 847 842 837 833 829 825 820 816 810 805 801
895 894 893 892 892 891 890 889 888 887 887 887 886 886 885 886 887 887 887 887 886 886 892 901 905 905 905 906 906 906 905 904 903 902 901 902 902 902 903 903 903 903 903 901 901 901 902 900 896 890 885 886 885 880 877 876 875 880 890 892 890 892 894 893 892 892 887 879 874 872 869 865 859 855 852 848 845 841 836 831 827 823 819 814 809 803 798
897 896 895 895 894 893 892 891 890 888 887 887 887 887 887 888 890 890 890 890 889 890 895 901 904 904 905 906 907 907 906 904 903 902 902 901 901 901 902 902 902 901 901 900 900 899 897 894 891 886 885 887 886 882 878 875 877 888 897 894 891 893 892 891 892 890 884 879 875 872 868 864 858 854 850 846 843 839 834 830 825 821 817 813 808 803 798
898 898 897 896 896 895 894 892 891 890 888 887 886 886 887 888 891 892 893 892 892 892 894 897 901 904 907 908 908 907 906 904 902 902 901 900 901 901 901 901 901 900 899 899 899 898 895 892 887 885 885 886 886 885 882 877 880 893 900 895 892 893 891 888 889 886 882 878 874 870 866 861 855 852 849 844 841 837 832 828 824 820 815 811 806 800 795
900 899 898 898 897 896 895 894 892 892 890 887 886 888 891 892 894 894 894 894 893 893 893 896 902 906 907 908 908 907 906 904 902 901 901 900 900 900 900 900 900 899 899 898 897 896 895 892 888 886 886 886 887 887 884 881 884 893 897 894 892 891 889 887 886 883 880 876 872 867 863 858 853 849 845 841 838 834 829 825 821 816 812 806 801 796 791
901 900 900 899 898 898 897 896 895 894 892 890 891 895 900 900 898 896 895 894 894 894 894 896 902 905 906 906 908 908 905 903 902 901 900 900 900 900 900 900 899 898 897 897 897 896 893 890 889 887 885 887 888 886 885 890 897 900 897 894 893 891 888 885 883 880 877 874 869 863 858 854 852 848 843 839 835 830 825 821 816 811 806 801 795 791 786
902 902 901 900 900 899 899 898 897 896 895 895 896 899 902 901 899 897 896 895 895 895 895 896 902 905 906 906 908 907 906 904 903 902 900 900 900 900 900 900 899 898 897 897 896 893 890 889 889 888 886 887 888 886 890 900 905 902 897 895 893 890 887 884 880 876 874 871 869 864 857 853 850 847 843 837 832 827 823 819 813 807 802 795 789 784 780
903 903 902 901 901 900 900 899 899 898 897 898 899 901 902 902 900 898 897 896 896 897 898 900 906 910 909 905 905 908 908 907 906 905 902 900 900 900 899 898 898 896 896 895 894 891 889 889 888 888 888 887 887 889 898 904 903 899 897 896 892 889 886 882 878 874 871 868 866 863 857 851 847 843 839 833 828 823 819 815 810 805 798 791 785 780 775
904 903 902 902 901 901 901 901 900 899 899 900 902 903 903 903 902 900 898 897 898 900 904 907 912 917 917 912 908 909 910 909 909 908 905 901 901 900 899 899 898 895 894 894 893 890 888 887 887 887 887 888 891 899 905 906 902 898 897 894 890 888 886 882 878 874 870 866 863 858 853 848 844 840 835 829 823 818 814 809 806 802 796 789 783 777 773
905 904 903 902 902 902 902 901 900 901 902 903 904 905 904 905 904 904 902 901 901 904 908 913 919 926 927 923 918 915 913 912 910 908 905 903 902 901 901 901 898 894 894 894 893 890 888 888 889 887 886 890 899 906 907 904 901 899 896 893 891 888 886 882 878 873 868 864 860 855 849 845 840 836 832 826 820 816 811 805 801 797 792 785 779 774 770
905 904 904 903 902 902 902 903 903 904 905 906 906 906 905 905 905 904 904 905 906 908 911 917 926 933 933 931 926 921 917 916 914 910 907 906 905 903 903 903 900 897 894 892 891 891 890 890 891 891 890 896 904 906 903 902 902 899 896 893 890 887 885 882 877 871 865 861 857 852 847 842 836 832 828 822 816 813 808 802 797 793 788 781 776 771 766
906 905 904 904 903 904 905 906 907 907 907 907 906 905 906 906 906 908 910 911 912 914 917 922 930 935 935 932 929 924 920 921 919 914 910 909 908 907 905 903 902 900 896 891 890 891 891 891 895 897 899 900 903 902 901 901 900 898 895 892 889 886 883 879 875 870 864 859 854 850 846 840 834 828 823 817 811 808 804 799 794 790 784 778 772 767 762
906 906 905 905 907 909 909 909 909 908 907 907 906 907 909 909 908 912 917 919 919 922 924 929 934 936 936 934 931 926 924 925 923 919 916 915 914 912 910 907 905 904 901 897 893 892 893 894 896 898 901 902 902 902 902 901 899 896 894 890 887 884 881 877 874 870 866 860 855 850 846 841 835 829 823 816 808 802 799 795 790 785 780 774 768 763 757
907 907 907 908 910 911 910 910 909 908 908 908 908 909 912 914 917 922 923 923 926 931 932 934 937 937 936 938 936 931 927 926 925 925 924 921 918 917 915 913 913 912 910 904 899 897 898 898 894 894 901 905 904 902 901 900 897 895 891 888 885 883 880 876 872 868 864 859 853 848 844 840 834 829 823 817 808 800 795 790 785 780 775 769 764 759 753
909 909 910 910 911 910 910 910 909 909 909 909 910 914 918 921 926 932 930 926 931 938 938 937 939 937 936 939 939 933 929 927 926 927 928 925 921 919 919 918 919 917 912 906 902 902 903 900 895 896 904 907 904 902 901 898 895 893 890 887 884 881 877 873 868 864 860 855 849 844 839 834 829 825 821 815 808 801 793 786 780 775 770 764 759 754 748
911 910 911 911 910 910 910 910 909 910 911 910 911 920 929 930 930 934 934 934 939 943 941 939 941 940 937 938 937 934 931 929 927 928 929 926 923 923 924 925 925 920 911 905 904 905 903 900 898 901 906 906 903 901 900 896 894 892 889 886 883 878 874 869 864 860 857 852 846 840 835 829 824 820 816 810 804 798 791 784 777 770 764 759 755 750 744
911 911 910 910 910 910 910 911 912 914 918 918 916 919 927 933 936 937 940 942 945 946 943 942 942 941 938 937 936 934 932 930 929 930 931 927 925 927 928 926 923 917 909 906 907 906 903 901 902 905 906 904 902 901 899 896 894 891 887 883 881 877 872 868 862 857 853 848 842 837 831 825 819 814 810 806 800 793 786 779 773 766 760 754 749 745 740
911 911 910 910 912 912 911 913 915 916 921 928 929 926 928 935 939 939 941 945 947 946 945 945 945 945 942 939 937 935 934 932 931 932 931 927 927 930 928 922 917 913 909 908 911 910 904 901 902 904 904 902 901 900 898 895 893 889 884 881 878 874 870 865 860 854 849 844 838 833 828 821 815 809 803 800 796 789 781 774 768 761 755 749 744 740 736
911 912 911 910 914 916 915 916 921 925 928 935 939 937 937 940 942 942 945 949 950 948 946 946 948 948 945 940 937 938 939 937 934 932 932 932 932 930 926 921 919 918 916 915 915 913 906 902 903 904 904 903 901 899 897 894 891 888 883 878 874 871 868 863 857 852 847 841 835 829 824 817 810 804 799 793 790 785 779 772 765 758 751 746 740 735 730
914 917 916 913 917 924 924 923 927 933 938 942 944 943 943 946 946 948 951 952 950 949 948 948 948 948 946 942 939 939 941 941 938 935 935 936 934 929 925 923 923 922 919 915 913 910 907 906 906 906 906 904 902 898 895 893 890 886 882 877 872 869 866 860 854 849 845 839 832 826 820 813 806 801 795 788 783 779 774 768 763 757 751 744 738 731 726
916 922 920 916 921 930 933 933 937 941 944 947 949 950 950 951 951 951 952 952 951 950 950 948 947 946 945 944 942 941 942 945 942 937 936 938 935 931 928 927 927 927 924 919 915 912 911 910 909 907 906 904 901 897 894 891 887 884 881 877 872 868 864 858 852 847 842 837 830 823 817 810 803 797 791 784 778 773 769 763 759 755 749 742 736 730 725
919 923 921 921 929 936 938 940 946 948 948 950 952 953 953 953 951 950 950 951 951 950 949 948 947 946 945 946 945 944 945 946 943 939 940 941 938 934 932 930 929 929 927 924 920 917 915 912 910 908 906 903 900 896 892 889 885 882 878 874 870 866 861 856 849 844 839 834 827 820 814 808 800 794 788 781 774 769 765 761 757 752 746 739 734 730 727
922 925 927 933 941 945 946 946 947 946 947 950 953 954 953 951 950 949 950 950 950 950 949 949 949 947 947 947 948 947 947 947 945 945 944 941 938 938 940 937 931 927 924 921 920 918 916 914 911 908 904 901 898 895 892 888 884 880 876 872 869 865 860 854 848 842 836 831 825 818 812 807 800 792 786 779 772 767 763 758 753 748 744 740 735 731 726
925 929 935 939 940 942 947 948 945 943 944 948 949 950 950 950 949 949 950 950 949 949 949 949 949 949 948 947 947 946 948 950 952 950 945 940 940 944 944 937 929 925 922 920 919 918 916 914 911 907 903 900 896 893 890 888 883 878 873 870 867 864 858 852 846 839 833 828 822 816 810 805 799 792 786 780 773 767 760 755 751 747 743 739 736 730 724
930 934 940 943 940 940 944 945 942 940 943 945 945 946 948 948 948 949 949 949 948 948 948 949 951 951 948 946 944 944 947 951 954 952 946 942 946 947 941 932 927 926 924 921 919 917 915 913 910 906 902 898 894 891 890 887 882 876 871 867 864 861 856 850 843 837 830 824 818 813 807 802 797 792 786 781 773 765 757 752 749 747 742 736 733 728 723
934 937 942 945 945 944 944 944 943 943 945 945 945 947 947 947 948 949 949 948 948 948 949 950 952 951 947 946 946 947 947 950 952 951 945 942 942 941 936 930 927 927 924 921 918 916 914 912 909 906 901 897 893 890 888 885 880 874 868 863 860 858 853 847 840 833 827 821 815 810 804 799 794 789 783 776 770 764 758 752 747 743 738 733 729 726 722
Wind_Speed
21 18 13 9 7 6 6 5 5 5 6 4 4 4 3 3 3 6 16 9 2 5 7 3 5 4 1 1 1 1 1 1 1 1 2 1 2 2 1 1 2 2 2 2 3 3 2 2 3 2 2 2 1 2 4 4 2 1 1 1 1 1 1 2 5 5 4 5 5 5 3 2 2 3 2 2 1 2 3 3 2 3 3 2 1 5 8
22 20 16 11 9 9 8 9 10 10 9 7 5 4 3 3 3 5 16 12 4 5 4 3 3 2 2 2 1 1 1 3 2 2 4 3 2 2 1 1 2 2 1 1 3 4 3 2 2 1 2 1 1 2 4 4 3 2 1 1 2 1 0 2 4 5 5 5 6 5 3 2 3 4 1 3 2 3 2 1 1 1 5 5 3 5 9
24 21 18 13 10 10 11 13 14 12 9 6 6 5 3 3 3 2 13 18 12 4 1 4 5 3 3 3 3 1 2 2 1 1 2 1 1 1 1 0 1 2 0 1 3 1 1 1 1 1 2 1 1 1 2 2 2 3 0 2 2 1 2 2 1 2 5 5 5 5 5 5 6 6 3 1 3 4 2 1 1 2 5 4 4 7 11
26 22 20 16 11 9 11 12 10 8 7 7 8 7 3 2 3 2 6 12 10 4 2 4 4 3 3 3 3 4 3 1 2 1 1 1 1 1 1 0 0 2 3 2 2 2 1 1 1 2 3 2 1 1 1 1 0 1 2 2 1 1 3 3 5 6 5 5 8 8 7 7 10 13 12 6 4 7 4 2 3 5 3 5 8 10 11
29 25 21 18 14 9 9 9 7 7 8 8 8 7 3 2 2 1 1 3 4 4 5 5 3 2 1 2 2 3 3 1 1 1 0 1 1 1 1 2 3 3 5 3 2 6 4 1 2 2 3 2 1 2 1 1 2 1 1 2 1 1 4 4 6 8 9 8 12 13 10 9 13 15 16 12 5 7 7 6 8 5 1 6 12 10 10
31 28 24 20 16 12 10 10 10 9 6 5 6 4 4 3 3 1 0 1 2 3 3 4 5 5 3 3 1 3 4 3 2 1 1 1 1 0 1 4 6 4 3 2 2 7 6 2 2 2 2 3 3 2 2 1 4 3 2 2 2 1 4 3 2 7 12 10 13 16 11 10 13 14 15 15 9 7 10 12 13 7 4 10 15 13 14
31 30 27 23 19 15 11 10 8 6 3 5 8 6 3 3 4 1 2 3 2 1 2 3 5 7 5 3 2 3 4 3 1 0 1 1 2 3 3 4 7 5 3 2 2 4 4 2 3 1 1 5 4 2 2 1 4 3 2 2 1 1 2 2 1 7 12 11 13 14 10 9 14 16 14 13 13 11 12 14 14 11 12 16 17 16 18
30 30 29 26 21 17 13 10 9 9 9 10 11 8 3 2 4 1 3 4 2 0 1 2 4 5 4 3 1 2 3 3 1 1 2 3 3 5 4 5 8 4 2 1 0 1 1 3 5 3 1 3 2 1 1 1 2 2 2 1 0 2 1 4 2 7 12 10 8 8 8 10 15 18 16 12 13 12 11 11 10 9 12 16 15 14 16
29 29 29 27 24 19 15 12 11 11 12 12 9 6 4 5 5 4 5 4 3 2 1 2 3 4 4 2 0 1 3 3 1 2 4 4 3 4 4 6 7 3 2 1 2 4 4 7 9 6 3 3 2 1 1 1 3 4 1 1 0 2 2 5 5 6 10 7 6 10 11 12 14 15 13 11 10 9 8 8 7 7 9 12 11 10 11
30 29 29 28 26 23 19 15 13 12 14 14 9 4 5 7 5 4 5 4 3 3 2 3 3 2 2 2 1 1 2 2 1 2 3 3 3 2 2 4 4 2 3 3 2 2 3 6 6 4 4 5 4 4 4 2 2 2 1 1 1 1 1 4 4 4 8 9 11 14 13 10 8 7 7 8 9 9 8 8 8 8 7 6 8 10 13
31 30 30 29 27 26 23 20 17 14 16 17 13 7 5 6 3 2 5 5 3 4 2 3 3 1 1 1 2 1 3 3 2 3 2 1 1 1 4 3 2 3 3 1 2 1 1 2 4 4 4 6 6 6 7 6 5 5 3 1 1 2 1 2 2 3 8 12 13 12 10 5 4 7 11 12 10 9 9 10 11 9 6 7 11 14 16
32 30 30 30 29 27 26 23 20 18 17 19 18 13 8 6 5 3 5 6 2 4 2 2 1 0 1 2 2 2 4 4 2 2 2 1 2 4 4 2 2 2 1 4 2 1 1 1 1 2 3 5 7 6 7 7 6 6 5 3 1 1 1 3 3 2 5 9 9 8 8 6 8 14 16 10 6 6 8 11 11 10 11 14 15 15 15
32 31 30 30 29 28 27 25 22 20 17 15 16 16 10 7 7 4 4 6 2 2 3 2 1 1 1 2 1 3 5 4 2 2 2 2 3 4 3 1 1 1 4 4 2 1 2 3 2 2 2 3 4 5 7 9 8 6 6 4 2 1 1 2 2 3 4 5 4 5 9 12 15 16 12 5 5 5 8 11 11 10 14 17 17 17 18
31 31 30 29 29 27 27 26 23 21 18 14 15 17 12 8 7 4 3 6 3 1 2 3 1 0 1 1 2 2 3 3 2 1 2 2 3 3 2 0 1 3 4 3 1 0 2 3 3 2 1 0 1 3 4 6 7 7 6 5 5 3 1 1 2 3 3 3 5 7 10 13 11 8 4 3 4 6 7 9 8 11 17 18 18 19 20
31 30 29 28 28 27 25 25 23 21 19 16 16 18 17 13 10 6 4 5 5 1 2 2 1 2 3 2 2 1 2 2 2 2 1 1 3 2 0 1 2 2 2 2 1 1 2 2 3 4 4 3 3 3 2 1 2 2 1 2 3 3 3 0 1 2 2 4 6 6 8 9 7 5 3 3 6 7 5 5 3 12 18 18 18 19 19
30 30 29 28 27 26 25 24 23 21 20 17 16 19 20 17 12 10 7 5 5 3 2 3 2 2 3 1 0 1 0 1 1 1 1 2 3 1 1 1 1 1 1 1 1 1 2 2 1 3 3 2 2 4 4 4 3 2 3 2 0 4 3 1 1 3 3 3 4 5 6 6 8 12 10 10 11 8 4 3 3 12 20 20 19 20 20
29 29 29 28 27 26 25 24 23 21 20 18 16 19 21 17 11 10 7 5 5 4 2 5 4 1 2 1 1 1 1 1 1 1 1 1 1 1 0 1 0 1 1 2 2 2 3 2 1 2 3 1 1 3 4 4 4 3 2 1 1 2 1 1 3 5 4 4 5 5 5 3 12 17 16 16 14 7 5 6 6 13 20 19 16 18 18
28 28 29 29 27 26 25 24 23 22 21 18 16 19 23 19 12 9 7 5 5 4 3 7 4 2 2 0 1 1 1 1 1 1 1 1 2 2 2 1 1 1 1 2 4 3 3 2 1 1 3 1 1 2 3 3 4 6 5 4 3 2 2 4 4 4 6 6 5 5 4 4 14 15 14 17 13 5 6 7 8 13 18 15 14 16 16
28 28 29 29 28 27 26 24 23 23 23 20 15 17 23 21 14 9 6 4 4 3 3 7 6 4 3 2 2 1 1 0 2 2 2 2 1 0 0 0 1 0 1 3 2 1 2 2 0 0 3 2 1 2 3 3 3 5 6 7 5 2 2 3 3 4 5 4 4 6 3 7 16 15 14 18 13 5 5 8 10 13 15 14 15 17 16
28 29 29 29 29 29 27 26 24 22 23 21 17 19 24 23 19 13 9 7 6 4 4 7 7 5 4 3 1 2 2 2 2 3 3 2 2 1 2 2 1 2 3 4 3 1 1 3 2 1 2 3 1 2 4 5 5 5 5 6 4 2 2 4 3 3 4 4 5 6 3 7 17 16 13 14 10 6 8 10 11 13 14 14 15 15 16
28 29 29 29 30 29 28 27 26 24 23 20 16 19 22 21 20 17 12 13 10 4 2 5 7 8 7 6 5 3 3 4 3 3 2 2 2 3 2 2 2 2 2 2 2 1 0 1 2 0 1 2 1 2 4 6 6 5 3 2 3 1 0 3 4 2 4 5 5 4 1 5 12 12 9 10 10 9 10 11 11 12 13 12 13 14 17
27 28 28 28 29 29 28 27 25 24 23 18 16 19 22 21 20 17 14 18 17 9 7 9 11 13 13 10 9 7 5 5 4 2 2 3 2 2 2 1 1 1 1 1 1 2 1 1 2 2 3 3 2 4 5 3 5 5 1 1 2 1 3 4 4 3 5 6 3 3 3 7 11 9 7 11 13 12 12 13 13 13 12 12 13 16 19
26 26 27 27 28 27 27 26 25 24 22 18 17 19 19 18 18 16 16 22 21 12 10 10 9 10 10 9 10 10 8 7 5 2 1 1 2 1 1 1 1 1 0 1 0 1 2 2 2 1 3 3 2 3 4 3 4 5 3 2 1 4 7 6 4 5 7 6 4 7 11 15 16 13 12 15 15 13 14 14 14 14 14 14 15 17 20
24 25 25 25 26 26 25 24 24 24 22 18 16 16 15 13 12 12 13 14 10 5 4 4 3 3 3 4 6 8 9 9 7 4 2 1 1 1 1 1 2 1 1 2 1 0 1 2 1 0 2 3 1 2 4 5 3 3 4 4 2 6 9 7 5 8 8 6 8 14 17 18 16 14 15 16 16 15 14 14 14 15 16 17 17 19 20
23 23 23 24 24 24 23 22 21 22 22 20 15 13 14 13 10 8 8 7 4 4 4 2 1 1 1 2 4 6 8 9 9 7 3 2 2 1 1 2 2 1 1 2 2 1 0 2 2 1 3 3 1 2 4 4 2 3 4 4 3 5 7 6 7 9 8 8 12 16 17 15 14 13 14 15 16 18 18 16 16 18 19 20 21 21 19
22 22 22 22 22 21 21 20 18 17 18 19 18 17 17 17 13 8 7 6 3 4 4 1 1 2 2 2 3 4 7 11 12 9 4 3 4 4 3 3 3 1 0 1 1 1 2 3 2 3 4 2 1 1 4 3 3 4 4 3 3 5 6 6 8 8 7 9 14 17 17 16 16 17 18 17 17 19 20 19 19 20 21 21 22 23 21
21 21 21 21 20 20 20 19 18 15 13 14 18 20 21 21 18 14 10 7 3 2 3 2 0 2 2 1 3 6 10 13 14 9 4 2 3 3 3 4 3 1 1 2 1 1 1 3 2 3 4 2 0 2 3 2 3 1 2 3 4 5 5 6 7 7 7 11 15 16 15 14 14 17 20 20 19 19 19 19 19 20 20 20 20 23 24
20 20 20 20 20 19 19 19 19 17 12 8 11 17 22 25 23 19 15 11 6 3 2 3 2 1 1 1 4 9 12 14 13 8 4 3 2 2 2 3 4 2 1 2 2 1 2 3 3 3 3 0 1 2 2 1 1 2 2 4 5 4 5 7 8 7 9 14 16 14 12 13 14 18 20 19 17 17 18 20 20 20 20 20 20 22 24
19 19 19 19 20 20 19 19 20 19 15 8 4 7 14 20 23 21 15 11 10 7 4 3 3 2 0 1 4 9 14 15 13 8 5 4 3 2 1 3 4 3 2 2 2 2 3 3 3 3 1 2 1 3 3 2 1 1 3 5 6 4 5 7 8 10 11 13 14 13 13 15 17 19 18 18 18 18 17 19 20 19 22 25 22 21 23
18 18 18 18 19 20 20 21 21 20 17 10 4 3 5 10 17 21 15 8 7 5 3 3 2 0 0 0 2 9 15 16 12 8 7 6 4 1 1 2 4 4 2 2 2 2 2 3 3 2 0 2 0 2 2 3 1 1 3 6 6 6 8 8 8 10 10 11 12 14 16 16 16 17 17 19 23 23 18 18 21 23 27 30 25 21 25
18 18 18 17 18 19 20 21 20 19 18 14 9 4 1 2 11 16 13 7 5 3 3 3 2 0 1 1 1 8 17 15 9 7 7 5 3 2 2 2 4 4 3 2 2 1 2 3 2 2 0 2 1 2 3 3 1 2 6 9 8 8 10 9 8 10 11 11 12 14 16 15 15 16 15 18 25 27 21 20 27 30 31 32 29 26 27
17 18 17 16 17 18 19 19 17 16 19 22 18 11 6 5 11 13 8 6 6 3 2 3 2 1 2 1 1 9 17 13 6 4 5 3 1 1 2 1 3 4 3 1 1 1 2 2 2 3 1 2 2 1 2 2 2 4 10 11 9 9 11 10 10 11 12 13 14 16 17 15 14 15 17 20 27 30 25 24 32 36 34 33 32 30 30
16 17 17 15 14 16 18 18 15 13 17 22 21 17 15 15 16 13 6 4 7 5 2 3 2 0 2 1 1 9 16 9 3 4 4 2 1 1 2 2 2 3 2 1 1 2 1 2 1 3 1 2 1 1 1 2 2 6 10 10 9 10 11 11 12 12 12 14 16 15 16 16 17 19 23 26 29 30 29 29 33 33 30 28 25 25 27
16 16 16 14 12 13 15 16 14 12 14 15 14 15 17 18 20 18 10 4 5 5 4 4 2 1 3 1 1 8 14 7 1 4 4 1 1 3 1 2 1 2 2 2 1 2 1 1 1 2 1 0 0 1 2 3 6 8 9 9 10 11 11 12 14 14 14 16 18 17 19 21 22 22 24 24 25 28 30 30 29 26 23 21 20 21 24
15 15 14 13 10 9 12 15 14 12 12 10 9 10 12 14 18 22 19 11 5 2 3 4 3 2 4 3 2 7 13 8 1 1 3 2 1 2 1 1 1 1 1 0 0 1 2 1 0 0 0 0 2 2 2 6 9 9 9 10 11 11 11 13 15 16 16 18 18 19 21 23 22 20 19 19 21 24 25 25 25 23 20 19 20 22 21
15 14 13 11 8 7 10 15 16 13 10 7 6 7 9 10 11 17 21 18 12 6 2 2 3 3 3 3 3 6 11 8 2 2 3 2 1 1 1 1 2 1 1 0 1 2 2 1 1 1 1 2 3 2 2 5 8 10 11 12 12 11 11 15 17 17 18 19 19 18 20 21 20 18 18 19 19 20 21 22 23 22 20 21 22 21 19
14 13 11 8 6 6 8 12 14 12 9 7 5 5 7 7 6 9 13 14 14 11 7 3 3 3 1 2 2 6 8 5 3 4 3 1 2 2 1 1 2 2 2 2 2 2 2 2 1 1 2 2 4 2 3 4 7 9 11 11 11 10 12 14 17 19 21 22 20 19 20 22 22 19 19 20 20 19 21 21 20 20 21 21 20 19 21
13 11 9 7 5 4 4 7 11 11 8 6 5 4 6 6 4 4 5 6 7 8 7 4 2 2 1 2 3 6 5 2 3 4 2 1 2 2 1 1 1 1 2 3 2 0 2 1 1 2 1 2 4 3 5 6 7 9 11 12 12 14 15 18 20 21 20 19 19 19 19 21 23 22 21 22 22 20 20 21 22 23 23 21 21 23 26
11 9 7 7 5 1 2 7 11 9 6 5 5 3 3 4 4 2 2 2 2 3 4 3 2 2 2 3 4 5 4 2 3 3 2 2 2 1 1 1 2 2 2 3 2 2 2 1 1 1 1 1 1 5 7 8 8 11 16 19 21 23 24 24 24 22 19 18 20 21 20 20 22 21 19 20 21 22 23 25 27 28 26 26 28 29 26
12 9 5 4 3 2 4 8 9 6 3 4 5 3 2 3 3 1 1 2 3 2 2 2 0 0 1 1 3 3 3 3 3 3 2 2 1 1 1 2 2 2 2 3 2 3 2 2 2 0 2 1 4 6 8 9 11 15 23 28 29 30 30 29 29 28 26 25 27 27 27 28 26 23 21 21 21 22 24 26 28 31 31 32 33 32 29
10 6 3 1 2 4 5 6 6 4 2 2 3 2 2 2 1 0 1 3 3 1 1 1 1 2 2 1 2 3 2 3 2 1 1 2 1 2 2 2 1 1 2 3 1 2 1 2 2 0 0 2 5 7 10 13 14 18 25 31 31 31 32 32 33 33 31 29 28 29 31 34 33 30 29 29 27 25 25 27 32 37 38 36 36 36 35
7 5 3 2 4 5 5 5 5 4 2 1 2 2 1 1 1 1 2 2 1 2 1 1 2 3 3 2 3 3 2 3 2 0 1 2 1 1 1 2 1 1 2 3 1 1 1 2 2 1 1 4 7 9 12 15 15 18 25 30 31 32 33 33 32 34 35 33 30 30 34 37 37 36 36 37 35 34 34 34 37 40 41 40 40 38 37
7 6 5 4 4 6 5 4 4 3 2 2 2 2 2 2 2 1 1 0 0 1 1 2 2 4 4 3 2 3 2 2 2 0 1 2 1 1 1 2 1 1 2 1 2 1 2 2 1 1 2 5 8 11 14 17 17 19 26 31 33 34 35 35 34 36 39 39 36 36 38 39 39 40 43 43 41 39 42 45 46 44 42 41 39 36 37
6 5 4 3 3 4 4 2 2 3 3 2 2 2 2 2 2 1 1 1 1 1 1 2 3 4 3 3 2 2 2 2 1 1 1 1 1 1 1 1 2 2 2 2 1 1 3 2 1 3 6 8 11 14 16 16 16 17 23 30 35 35 35 36 36 35 36 38 39 40 41 41 41 42 44 44 43 41 43 47 49 46 43 40 37 36 38
3 3 4 3 3 3 2 2 2 2 2 1 1 1 2 1 1 1 1 1 2 3 3 3 3 3 4 4 2 0 0 2 2 1 1 1 1 0 1 2 1 1 2 1 1 2 3 2 3 6 10 12 14 15 15 16 19 20 21 25 30 32 33 34 34 32 32 36 40 40 39 39 40 38 39 43 46 44 42 43 44 44 42 38 35 36 39
4 2 2 2 2 2 1 1 1 1 1 0 1 2 2 2 1 1 0 1 2 3 4 4 3 3 3 3 2 1 1 2 2 1 1 1 1 1 1 1 1 2 2 2 2 3 4 5 6 9 12 14 15 15 15 18 24 25 21 19 23 29 32 34 35 34 34 38 41 41 38 38 38 37 38 42 45 44 42 43 43 42 40 37 35 36 40
4 2 2 2 1 2 1 1 0 1 0 1 2 3 2 1 1 1 1 2 2 3 3 4 3 3 2 1 1 0 1 1 1 1 1 1 1 2 1 2 1 1 1 2 3 3 4 6 8 10 11 13 15 15 15 17 22 24 22 21 24 29 32 34 36 36 37 39 41 39 37 38 39 39 38 39 41 43 43 43 43 44 44 42 38 37 38
3 1 2 2 1 1 1 1 1 1 1 2 2 2 1 1 1 1 2 3 2 3 3 3 2 1 1 0 1 1 1 1 1 1 1 1 1 2 2 2 2 2 1 2 3 5 6 8 10 11 12 13 14 14 14 16 20 23 24 24 25 28 32 34 35 38 41 41 38 35 36 39 42 42 39 37 37 40 42 43 44 47 48 44 40 40 43
6 3 3 2 1 1 1 1 1 1 2 3 2 2 2 1 1 0 2 2 2 2 1 1 1 1 1 0 1 1 1 1 1 1 2 1 1 1 1 1 3 3 2 2 3 6 8 8 10 12 14 14 13 14 15 18 23 26 27 27 29 32 34 35 37 41 44 41 37 38 41 42 41 41 39 35 33 37 44 48 47 45 42 41 43 47 51
6 4 3 2 1 1 1 1 1 1 3 3 2 3 3 2 1 1 2 1 2 1 0 0 0 0 0 1 1 1 1 0 0 1 1 1 0 0 1 2 3 3 4 5 6 8 8 8 9 12 14 15 15 15 18 22 27 30 33 35 36 36 36 39 41 42 43 42 42 43 44 43 39 38 37 36 37 44 49 47 42 39 42 46 50 52 51
3 3 2 2 2 2 2 1 1 1 1 1 1 2 2 1 1 1 1 1 2 1 0 0 1 1 1 1 0 0 0 0 1 0 1 1 1 1 2 4 4 4 6 7 8 7 7 8 8 10 12 14 16 20 23 27 32 37 40 41 39 35 36 40 42 41 42 44 45 44 44 44 43 41 41 44 46 44 38 35 38 45 49 51 50 48 45
2 2 1 1 2 2 1 0 1 1 0 1 1 2 2 2 1 2 1 1 2 0 1 0 0 0 1 1 1 0 0 1 1 1 1 2 2 3 3 5 6 6 6 8 9 8 7 9 13 15 15 17 21 26 29 32 35 39 43 44 40 37 37 39 41 41 42 43 45 46 47 46 46 47 46 43 37 29 24 29 42 51 52 49 47 45 41
Wind_Direction
47 50 58 79 102 127 151 146 136 132 123 111 74 66 43 44 105 1 355 345 306 57 70 42 29 68 110 180 124 12 9 12 331 355 32 351 301 358 42 15 22 43 27 334 335 6 354 331 13 10 16 50 34 331 344 333 294 282 343 38 15 338 219 286 289 271 282 290 271 275 305 12 327 272 206 141 137 153 186 221 284 308 275 235 229 253 271
46 49 53 64 82 101 123 130 128 119 112 108 83 82 89 76 117 26 13 23 91 84 79 106 79 87 162 135 87 41 43 35 20 14 22 11 345 6 7 21 16 6 29 320 313 355 20 21 52 14 335 7 248 314 358 350 349 39 48 324 344 347 318 337 323 314 321 327 324 318 324 0 315 287 164 125 116 80 63 258 66 316 235 210 212 259 270
44 49 54 62 82 104 118 125 123 109 98 102 89 98 135 86 86 23 22 41 66 81 77 118 116 123 126 95 52 41 78 39 353 345 18 8 324 0 347 71 4 310 327 233 286 353 70 343 24 8 327 344 201 271 359 338 13 58 352 291 317 292 284 309 313 309 313 314 316 311 313 322 306 292 312 116 161 149 159 252 220 240 246 224 218 252 272
44 47 52 59 80 113 134 138 128 98 81 95 91 88 124 88 55 2 11 33 51 66 25 55 100 129 116 84 22 16 55 125 235 249 10 357 308 315 293 179 145 318 347 342 318 3 86 174 29 357 329 330 202 176 14 312 74 43 319 285 271 276 276 246 223 236 254 263 274 286 303 305 290 289 295 286 198 179 182 192 210 228 275 283 254 250 268
46 48 50 55 67 93 131 149 144 115 96 93 85 66 47 80 81 34 11 29 38 53 31 24 57 97 96 92 22 21 48 61 222 203 164 73 58 281 302 38 40 358 353 358 342 345 346 83 55 336 287 291 262 190 180 195 174 158 228 204 161 334 282 248 224 240 251 258 273 285 294 281 274 282 287 283 239 174 177 208 226 228 335 284 265 263 275
49 50 52 55 62 76 107 132 135 126 105 82 83 61 16 62 125 225 80 68 26 39 21 10 49 56 61 103 78 30 48 43 22 349 282 130 75 1 59 40 31 19 348 327 329 340 343 10 6 322 275 312 320 230 228 205 174 171 188 188 129 41 274 253 180 251 262 264 270 276 279 272 268 267 271 277 267 198 192 225 238 224 214 251 267 284 286
51 52 53 56 60 69 90 122 135 126 101 84 90 80 20 67 105 6 20 81 90 84 309 324 50 57 55 83 59 25 50 61 77 294 319 5 23 18 30 8 3 7 349 334 348 350 349 325 307 319 313 316 314 291 302 233 189 191 182 182 135 136 257 277 225 267 278 273 260 261 262 268 275 273 268 271 269 243 225 237 241 227 231 249 265 278 278
52 53 55 56 59 64 75 96 110 106 102 95 81 64 35 116 125 115 77 82 81 112 292 334 54 50 35 62 37 355 47 60 90 84 25 19 11 13 16 345 336 325 300 348 71 155 162 226 246 247 307 303 282 229 273 232 235 247 173 159 198 152 289 329 320 293 295 284 261 264 267 272 282 285 282 278 276 270 255 250 244 230 243 257 263 268 272
52 54 56 58 60 64 70 84 98 104 105 96 74 53 66 92 106 120 111 84 10 337 342 29 60 41 22 45 317 338 49 55 45 48 38 40 31 9 350 325 317 280 208 242 195 177 186 222 241 250 250 264 264 214 210 55 342 307 244 141 179 170 292 331 346 311 295 298 320 316 305 295 288 284 281 278 276 274 265 259 243 220 240 266 274 275 279
51 53 56 57 60 64 67 74 86 101 108 100 86 77 89 86 80 88 100 87 19 357 358 19 60 70 16 38 52 52 81 86 65 65 53 52 53 24 304 297 302 267 258 285 259 211 238 251 271 290 275 278 290 282 281 290 282 284 286 174 169 145 315 327 346 308 288 307 328 321 315 313 297 285 292 287 274 268 272 277 266 239 230 259 280 282 287
50 52 54 57 59 61 64 67 74 87 102 106 108 113 100 93 88 63 81 84 22 348 3 26 50 125 188 57 58 79 94 78 49 67 94 90 72 268 263 273 287 263 265 343 63 108 276 333 331 313 285 278 271 266 276 267 226 212 223 228 186 123 139 268 281 274 287 308 323 322 317 304 283 308 314 302 286 282 286 288 285 275 264 273 284 291 299
48 50 52 55 57 59 61 64 69 77 89 104 111 107 94 94 98 70 83 97 32 353 57 78 8 106 67 28 14 41 67 66 47 68 100 180 207 227 248 266 279 279 24 59 66 214 240 5 331 256 253 259 255 253 258 257 241 220 211 208 217 165 206 250 251 237 281 306 325 327 310 295 301 311 312 310 309 304 298 294 290 294 305 308 308 310 317
46 48 50 52 54 56 58 60 65 72 79 93 100 93 86 88 89 73 83 102 80 347 90 127 261 320 14 340 23 75 78 83 92 118 155 207 226 223 228 246 277 350 29 22 340 273 283 286 250 174 184 213 236 249 241 237 238 224 206 197 194 221 258 277 269 253 274 304 318 299 292 297 305 306 312 349 13 341 322 308 302 322 341 342 342 344 347
46 47 49 51 51 53 55 56 59 64 68 74 82 81 76 73 83 93 99 101 103 324 94 118 164 127 106 11 52 88 111 112 114 216 206 209 247 241 221 125 0 4 7 342 298 56 322 311 329 332 288 160 337 287 245 229 225 210 200 200 192 194 227 330 293 247 245 284 281 280 292 300 306 306 315 19 356 324 313 298 312 8 17 7 358 357 359
46 47 49 51 51 51 52 53 55 57 60 64 71 74 68 62 72 87 95 108 121 120 34 63 105 113 104 75 53 94 161 151 170 231 258 270 266 267 348 47 16 2 2 349 303 318 340 357 1 339 324 349 338 295 287 302 254 206 185 190 188 216 230 71 347 266 309 313 291 296 302 298 309 319 296 287 294 295 287 260 307 19 18 9 2 359 357
47 47 48 49 51 50 49 50 51 52 54 58 68 70 61 55 64 78 82 92 107 106 24 1 5 88 95 99 133 99 51 297 222 212 307 274 254 268 60 73 23 4 356 345 290 318 355 3 346 319 303 316 319 290 295 315 316 351 25 46 325 267 270 42 262 264 311 306 272 287 282 280 331 341 337 332 317 308 314 277 305 7 6 0 360 355 351
49 49 48 48 49 48 48 47 46 47 47 49 59 61 52 45 51 66 73 73 83 96 24 345 330 356 72 61 345 344 285 290 291 196 248 252 253 311 1 108 348 221 194 358 344 352 357 334 302 295 276 263 1 291 295 314 307 308 351 36 270 262 246 176 220 245 267 250 250 276 260 309 356 353 352 347 332 331 348 309 314 3 357 349 352 349 343
50 49 48 48 48 46 47 46 44 44 41 38 49 54 46 40 42 54 68 78 88 100 14 354 4 51 42 316 277 303 267 299 329 277 253 57 52 2 329 328 315 230 174 13 0 4 343 302 256 293 281 292 67 280 291 324 298 289 304 308 295 257 191 192 214 257 267 250 259 274 249 7 4 356 0 356 342 349 1 322 323 350 342 336 345 340 332
50 49 48 48 48 46 46 46 45 46 41 35 42 51 42 34 36 56 78 75 69 88 23 7 25 41 351 283 246 288 291 316 326 333 17 17 21 74 5 46 41 352 328 342 347 14 337 293 237 113 278 287 352 299 294 285 261 284 308 307 300 295 255 216 208 251 258 240 272 279 258 19 3 353 8 13 7 7 348 323 321 329 327 331 339 332 329
50 49 48 48 48 47 47 47 47 49 46 40 45 56 49 38 36 48 78 100 93 88 47 23 31 42 15 5 43 351 333 342 343 15 42 327 283 18 35 7 0 343 348 359 358 15 306 299 314 32 268 278 299 305 293 277 264 273 282 279 279 281 290 279 256 268 285 280 299 295 276 357 355 355 12 17 7 342 326 321 319 321 323 330 331 328 330
50 49 47 47 47 46 46 48 47 48 48 44 48 60 56 46 42 49 79 107 105 97 52 43 61 75 65 56 64 42 8 19 18 17 14 296 307 55 59 312 331 353 7 11 330 277 209 278 297 338 278 283 292 292 297 301 296 279 217 232 280 239 179 300 298 332 326 295 307 341 335 345 357 8 14 355 340 334 334 329 323 322 324 327 326 324 325
50 49 47 46 46 45 45 47 47 48 50 47 51 64 65 60 59 63 81 91 87 91 118 107 87 81 77 70 69 65 54 54 55 40 353 318 345 84 127 289 14 25 355 10 287 290 330 307 282 302 297 283 259 276 287 294 297 300 58 96 305 23 51 328 299 337 332 299 302 17 357 348 0 8 359 344 338 335 336 331 325 325 326 326 324 320 318
49 50 48 46 45 44 43 44 45 47 49 48 51 65 72 70 69 73 84 89 88 93 114 113 89 71 67 59 56 58 54 47 48 63 78 357 351 76 119 59 45 259 316 54 193 257 317 308 284 297 295 278 266 290 289 259 264 296 314 253 234 42 25 347 315 338 334 319 349 7 352 349 352 349 346 346 341 336 336 332 326 324 323 321 318 314 313
49 49 49 46 45 43 41 43 45 44 46 47 49 60 71 74 74 80 88 95 99 98 96 96 69 44 40 25 30 39 39 33 23 20 47 106 39 25 30 43 28 318 16 49 45 206 341 295 270 144 266 258 241 268 271 263 270 331 339 308 324 19 10 351 340 344 334 329 355 357 347 341 341 338 337 337 334 330 329 326 321 320 317 315 313 311 311
48 49 49 47 45 43 41 43 45 46 48 49 51 62 70 66 64 76 84 91 116 123 100 62 340 345 5 2 16 22 18 10 359 352 342 209 189 215 308 339 355 318 341 16 17 67 271 260 249 267 264 251 200 220 245 256 303 4 3 339 326 348 355 354 348 340 328 320 332 337 332 327 332 335 333 332 330 326 324 321 319 316 314 313 313 312 311
48 48 49 47 45 42 40 40 43 47 50 51 53 61 67 60 51 58 77 81 89 103 101 85 307 294 300 345 10 1 355 355 351 345 332 259 232 239 269 307 323 316 39 345 306 177 231 258 252 259 261 251 71 273 260 280 315 334 1 4 323 332 356 356 337 327 318 318 328 333 329 327 333 334 329 326 325 321 318 317 316 314 313 313 312 311 311
47 47 46 46 45 41 39 37 36 36 43 49 52 58 62 58 50 48 56 59 49 67 89 99 271 290 291 344 7 355 353 354 351 348 341 298 259 247 252 275 284 259 167 251 238 151 222 266 245 230 238 238 31 247 242 273 302 329 32 12 352 1 14 358 335 327 325 326 330 332 326 322 327 326 322 319 318 315 313 313 313 313 313 312 312 313 313
45 44 44 43 42 39 38 36 32 29 28 39 54 59 59 55 48 43 45 50 62 87 99 110 124 121 149 282 342 355 357 353 350 348 339 310 293 268 233 243 256 248 197 226 235 187 216 235 239 246 245 279 343 278 247 263 329 73 43 12 16 21 8 352 338 322 317 322 325 324 318 313 315 315 314 314 314 313 312 313 313 313 314 316 317 317 317
42 42 42 41 39 38 37 36 33 27 21 21 53 70 61 53 44 37 36 51 72 86 91 93 100 106 123 293 341 356 355 348 344 341 325 315 321 317 240 238 247 245 230 236 251 255 245 231 244 263 239 113 340 293 293 310 345 27 357 3 20 5 334 339 333 315 310 317 319 316 312 307 308 311 311 313 316 315 313 313 315 316 318 319 318 316 314
40 39 40 40 40 38 35 35 35 27 21 24 40 62 63 47 31 24 24 39 66 84 104 100 97 127 34 19 345 353 349 341 335 327 313 309 314 301 218 234 248 245 240 239 224 238 273 270 262 267 160 108 178 289 315 322 316 93 5 353 357 342 327 331 329 317 311 311 310 309 307 304 306 310 312 316 319 319 315 313 316 317 317 317 315 311 309
36 37 37 38 39 39 36 36 35 29 29 40 48 49 79 342 353 5 18 33 43 58 87 82 92 179 21 27 310 353 351 339 323 313 304 292 285 265 229 228 237 222 210 231 228 212 260 262 261 284 298 111 150 250 300 318 321 46 1 346 340 334 330 328 323 317 311 308 308 307 306 308 315 318 320 322 321 319 316 314 316 316 314 312 310 306 305
32 34 34 35 38 39 37 38 37 35 44 58 67 77 82 19 349 358 20 41 39 53 87 69 82 217 343 312 245 0 356 340 310 315 308 263 216 254 234 220 237 227 216 245 283 263 239 226 258 287 257 135 142 253 319 3 358 339 341 339 333 332 331 324 320 318 316 317 320 317 315 320 325 323 320 320 318 317 316 316 316 315 313 310 308 306 306
29 29 28 32 38 38 35 37 39 42 55 67 72 70 61 41 23 19 31 50 45 50 72 76 90 85 337 254 222 10 5 349 307 349 334 235 144 27 217 195 230 245 217 174 227 262 237 184 246 289 273 122 120 289 37 53 338 324 333 334 330 330 328 322 321 321 321 325 326 321 316 318 319 318 317 315 314 315 315 314 314 314 312 310 309 309 310
23 22 24 28 37 41 38 35 37 48 60 65 61 54 48 42 36 35 41 58 57 51 49 56 77 334 349 318 222 18 14 1 308 1 350 290 41 13 287 221 231 235 203 180 228 283 274 195 230 289 292 112 71 70 54 4 333 333 337 333 330 330 327 324 326 325 323 325 323 315 310 312 315 317 317 314 312 313 313 313 314 314 312 310 309 310 312
18 19 21 25 37 50 43 35 37 50 58 52 44 42 43 42 42 44 46 48 53 57 42 42 58 33 2 340 293 358 5 357 285 307 321 299 5 26 329 303 323 248 205 179 286 259 249 235 22 327 237 66 53 65 27 336 331 336 338 333 333 333 330 328 328 324 321 323 320 314 314 317 318 320 319 315 314 314 314 314 314 313 311 309 309 311 312
17 17 20 28 46 57 39 32 35 40 35 20 17 32 33 33 44 53 53 52 55 67 78 55 59 44 5 318 286 343 356 352 296 267 291 298 339 28 59 355 323 267 185 53 270 265 293 23 49 297 285 71 70 58 354 331 334 338 337 333 332 332 328 326 325 322 321 322 320 319 320 321 320 320 317 313 312 313 313 313 314 314 311 309 309 311 313
16 19 20 27 44 52 40 31 27 21 9 358 357 16 21 21 42 58 54 49 49 53 59 73 77 56 17 249 287 343 353 347 323 323 327 326 326 325 12 3 318 298 318 314 258 264 335 29 63 329 346 98 113 87 21 355 343 337 333 328 328 329 328 328 326 324 323 323 323 323 323 321 320 320 317 313 312 313 313 313 313 313 311 309 309 311 311
12 18 27 34 39 46 36 14 4 1 360 354 350 2 11 15 38 53 35 25 35 40 45 64 76 38 330 255 308 340 349 339 323 328 336 4 346 335 349 0 328 314 321 308 277 308 11 15 45 19 23 147 131 65 17 355 343 336 330 327 331 333 333 333 332 328 326 325 325 324 323 321 320 320 318 314 312 312 312 311 310 310 309 306 307 309 310
13 18 34 46 52 63 325 343 349 353 358 1 6 18 15 11 27 32 354 357 26 21 23 53 69 19 349 322 318 337 3 0 316 313 330 353 355 347 332 338 2 11 331 312 327 21 24 353 348 43 90 146 33 10 358 345 338 337 334 334 337 337 335 333 329 325 321 318 316 316 316 315 315 315 315 313 311 311 312 312 311 310 308 307 307 309 309
20 28 42 49 45 10 335 345 351 354 4 16 27 44 28 19 33 23 321 19 39 13 10 48 45 311 56 8 297 312 15 15 316 305 326 325 321 354 325 317 358 11 318 289 325 17 10 305 289 10 87 27 346 348 346 338 337 339 339 338 337 335 332 327 323 320 318 314 312 312 312 310 310 310 311 311 311 312 313 312 311 310 308 307 308 309 308
18 27 37 28 11 7 4 6 11 18 34 40 40 42 28 22 35 22 20 38 32 352 21 58 342 329 60 79 273 284 345 355 323 291 308 313 347 35 336 303 12 37 284 269 313 27 6 297 300 316 66 355 346 343 339 338 341 341 339 335 332 329 328 325 322 321 320 317 314 313 312 311 311 311 311 311 310 309 309 309 309 309 309 309 310 310 309
18 28 38 47 42 34 32 32 28 28 39 54 42 38 34 20 15 18 33 47 16 310 339 50 351 312 313 304 265 252 308 343 347 3 281 315 16 72 316 315 21 22 265 274 346 27 290 297 328 325 303 334 344 343 341 342 341 336 331 330 329 328 327 325 322 321 321 318 314 313 314 312 312 311 312 311 309 307 306 307 307 308 309 310 310 310 310
31 48 58 66 50 34 28 25 21 25 37 40 31 22 4 9 35 40 347 12 24 323 327 358 350 330 324 315 273 252 284 335 9 89 266 297 342 52 22 0 345 249 258 304 31 357 286 298 333 318 313 335 344 344 341 338 333 328 327 328 328 327 327 325 321 319 319 318 315 314 314 313 311 311 312 312 310 308 308 309 309 309 308 309 309 311 312
37 50 56 62 37 22 17 359 4 34 42 31 31 40 12 0 12 21 350 349 348 326 335 5 3 347 329 318 309 301 317 355 35 53 309 306 0 49 20 297 262 274 310 356 36 294 273 261 8 354 346 345 344 339 336 332 329 327 326 325 325 327 327 324 320 318 318 317 316 316 316 314 313 312 313 314 313 312 310 311 312 311 310 310 311 313 314
26 23 32 34 7 1 12 2 8 41 57 354 342 58 48 15 6 25 31 316 294 315 346 6 356 320 293 290 294 106 45 346 341 348 350 345 354 344 249 255 278 353 349 327 315 311 301 303 0 357 348 343 337 332 329 328 326 324 322 322 324 326 325 321 318 318 317 317 316 317 316 314 313 313 313 314 315 314 311 311 313 313 314 315 316 315 315
73 48 51 59 14 347 33 65 27 30 113 71 20 45 58 53 29 33 80 242 299 329 334 321 304 288 289 305 322 96 76 356 333 306 56 30 295 253 267 318 353 4 337 305 306 321 319 325 341 344 339 334 330 325 323 323 324 323 322 320 321 323 322 319 317 317 317 317 317 316 315 313 313 314 314 314 314 315 313 313 315 317 318 318 315 314 315
80 44 55 82 49 349 35 90 51 287 206 65 49 58 70 32 301 262 210 230 297 325 311 290 273 240 225 266 356 39 54 36 347 301 16 61 263 281 355 38 348 306 310 291 292 310 325 330 334 334 331 327 323 320 320 322 322 321 321 319 319 320 321 318 316 316 317 317 316 315 315 315 314 315 315 314 314 315 316 317 321 323 320 316 313 316 321
93 31 55 95 111 337 50 104 195 228 131 92 75 86 116 246 278 218 178 205 263 309 312 310 318 303 246 112 72 27 13 43 10 301 1 82 289 312 357 0 301 284 212 220 273 314 328 329 327 325 322 321 319 318 320 322 321 321 320 319 319 321 321 318 316 317 318 318 316 315 316 316 316 316 316 314 314 317 320 322 323 321 318 317 321 327 329
78 81 79 94 124 106 87 108 232 221 146 134 137 144 167 225 267 129 146 185 237 277 283 285 336 329 311 16 70 49 8 53 36 335 344 357 330 330 345 297 293 295 266 250 305 325 326 323 321 319 317 317 317 316 319 322 321 319 318 319 321 322 320 317 316 317 318 317 316 315 316 317 316 316 316 316 318 321 322 321 319 318 320 326 330 330 327
57 71 80 78 82 103 108 103 271 209 177 168 159 147 156 193 225 166 150 204 256 268 244 217 257 283 325 49 58 35 311 233 115 22 331 304 271 63 281 261 268 292 311 317 322 321 317 318 318 316 314 314 315 317 322 323 320 317 317 319 320 320 319 317 316 316 317 317 317 317 318 318 318 318 320 322 322 320 318 318 320 324 327 329 328 325 323
46 67 74 55 63 106 141 154 155 169 182 188 141 136 147 161 169 150 169 270 290 286 133 177 285 334 7 16 16 244 231 123 93 40 287 258 166 148 243 264 278 305 316 315 314 314 316 318 318 315 314 314 315 318 321 321 318 316 317 318 319 320 319 318 317 317 317 318 319 320 320 320 321 323 325 323 320 317 317 321 328 330 328 325 324 324 323
53 73 82 45 27 18 3 19 95 90 105 149 132 116 104 90 100 135 188 285 309 9 100 129 133 51 0 323 271 261 28 63 47 347 273 232 174 176 226 267 295 312 313 309 311 314 316 315 314 313 311 310 312 316 319 319 318 317 317 318 320 322 321 320 319 319 319 320 321 322 322 323 325 327 325 322 321 324 326 327 328 327 325 324 325 326 326